Presure
184 186 182 192 183 185 200 195 198 179 198 195 207 205 224 207 218 232 227 215 233 238 243 243 244 214 261 269 262 254 263 272 268 295 145 254 305 338
190 183 184 200 205 202 222 197 195 200 202 201 210 200 222 197 226 222 231 238 247 240 239 226 260 249 267 254 263 241 271 286 290 312 326 340 292 338
183 187 192 202 209 197 217 192 192 179 199 203 201 213 218 224 225 240 236 253 254 256 252 268 294 276 283 273 297 318 305 325 321 372 377 260 172 337
174 193 208 201 211 210 182 176 199 203 178 208 204 208 243 238 249 252 267 257 304 269 269 284 283 311 324 343 342 335 337 395 384 388 344 299 343 145
188 183 201 201 212 205 200 212 205 200 213 229 236 245 246 249 283 271 267 265 306 298 336 343 337 350 334 350 346 385 381 366 338 408 359 388 298 339
205 208 214 215 221 226 236 237 235 241 251 257 256 274 294 296 263 298 318 275 335 335 342 339 295 373 374 366 338 373 407 404 395 401 413 374 293 336
212 213 216 220 223 229 240 245 252 258 264 271 298 273 261 328 299 315 318 317 303 313 313 326 351 340 337 357 357 413 430 391 381 382 398 381 353 332
217 232 231 226 232 238 251 260 264 264 283 269 257 318 297 307 316 298 307 298 277 343 331 333 321 347 354 342 410 412 433 446 366 372 388 374 345 330
236 233 240 237 241 251 262 274 286 292 257 257 320 299 312 347 347 354 332 317 320 311 307 299 306 347 359 389 398 405 412 424 360 369 366 376 349 323
238 240 240 251 263 277 280 272 273 257 300 299 305 320 328 331 331 320 302 312 308 297 297 317 343 393 389 370 372 403 401 405 356 359 369 353 351 319
243 249 265 246 292 284 260 252 303 304 318 330 348 348 333 322 328 292 280 297 299 304 332 337 387 380 373 356 369 395 404 354 352 351 360 353 338 314
253 280 292 257 253 268 298 317 319 368 365 341 342 325 328 320 337 321 322 298 292 317 334 373 364 366 353 345 366 387 380 339 342 345 353 354 281 318
256 255 260 282 308 321 403 553 575 546 514 473 430 324 323 299 315 299 303 285 293 337 367 355 354 345 339 341 371 378 361 326 327 333 331 333 331 313
288 305 308 323 360 539 533 592 542 524 494 462 432 399 291 328 300 306 295 300 324 329 348 332 347 333 327 280 367 361 346 321 315 327 323 317 315 323
299 316 346 465 517 517 600 538 525 491 469 447 418 392 342 309 298 299 326 332 324 345 341 327 332 319 319 366 373 345 341 329 308 316 318 316 307 308
329 342 497 500 496 580 520 505 509 463 439 427 406 380 365 355 342 330 326 326 339 329 326 329 322 315 313 331 337 328 329 330 305 295 302 306 307 305
466 469 488 484 527 522 510 496 463 441 422 408 393 375 362 344 335 323 328 318 350 335 315 318 318 306 305 301 306 319 310 315 315 312 314 315 296 293
450 459 465 470 507 485 462 477 439 416 400 386 373 361 348 337 327 329 318 323 333 324 307 311 304 304 302 291 292 293 293 292 292 297 301 301 307 306
429 443 452 446 466 462 478 428 413 396 383 367 359 349 338 327 325 318 316 324 320 292 301 303 296 159 153 287 286 287 286 285 282 286 288 287 289 292
422 431 455 446 431 441 438 413 391 382 366 356 349 336 328 321 322 314 311 322 305 284 315 301 294 297 292 288 287 285 289 290 285 281 280 277 281 284
416 432 443 487 454 415 403 405 381 365 356 347 338 329 320 323 319 312 306 305 286 268 296 304 292 288 288 290 295 290 287 292 298 309 313 309 316 316
409 444 483 435 417 412 408 391 375 356 349 340 327 318 313 320 315 306 300 298 283 263 291 289 281 279 267 271 286 293 277 287 314 305 326 321 316 315
423 440 457 424 399 407 407 384 364 358 344 329 317 307 318 312 311 298 295 292 275 267 299 289 285 287 270 272 307 282 288 351 339 324 318 320 316 311
Wind_Speed
70 73 73 79 74 78 84 81 82 66 84 92 88 84 91 80 88 90 87 74 90 89 90 88 82 77 80 80 77 72 74 74 67 69 61 71 63 70
77 77 80 86 85 86 84 88 88 88 86 86 93 84 94 69 95 91 95 96 96 91 87 74 86 78 81 75 75 73 77 73 73 73 72 68 66 71
80 81 89 88 88 84 88 82 85 66 76 91 91 93 97 96 96 99 96 98 94 95 89 90 90 87 86 81 84 83 77 78 74 79 72 65 63 70
77 91 92 94 92 91 73 62 95 96 59 93 90 97 103 101 100 98 95 95 92 92 89 88 85 88 88 85 82 81 78 74 71 65 66 63 63 65
93 89 95 92 98 100 95 99 98 79 99 98 100 103 104 104 104 95 91 89 88 86 86 84 82 83 80 83 79 74 68 66 64 56 61 58 62 68
98 100 102 103 103 105 105 104 105 104 107 108 104 109 110 104 92 90 87 85 81 79 76 75 72 78 76 73 68 64 56 54 54 53 57 59 62 67
104 105 106 107 107 109 112 114 115 115 115 112 112 95 94 95 90 86 82 79 74 70 68 69 69 67 67 64 60 49 46 50 48 50 54 60 63 67
110 111 110 110 111 115 120 118 117 114 116 100 93 101 95 93 88 80 76 74 72 65 62 64 61 61 59 58 44 43 38 39 46 46 49 59 64 68
112 109 115 116 118 123 123 122 119 115 99 98 101 95 93 84 77 72 70 67 65 59 57 61 56 55 51 42 39 40 37 36 44 43 48 59 64 66
118 118 116 122 126 126 120 112 109 101 105 102 96 93 86 77 72 67 65 62 59 56 55 58 55 44 39 39 38 37 36 35 40 41 46 54 60 65
117 120 125 112 120 117 108 104 109 106 101 95 85 80 75 71 67 64 61 58 56 55 54 50 40 38 34 37 37 35 31 38 39 40 45 53 60 65
115 121 119 115 109 111 110 106 102 85 81 83 75 74 70 66 61 59 57 54 52 52 49 35 35 32 34 36 34 32 29 38 38 39 42 50 59 64
112 110 111 112 111 107 91 52 43 40 43 53 59 66 64 62 59 55 54 51 49 46 36 34 32 30 32 33 31 29 31 38 38 39 44 48 53 62
114 112 110 108 104 53 50 36 36 38 35 41 48 52 61 56 56 53 51 49 45 41 31 35 28 26 31 32 27 31 33 39 41 38 43 48 50 53
116 113 106 70 50 47 27 32 33 33 30 31 39 46 51 53 53 50 46 43 40 34 28 30 26 26 27 19 21 28 31 37 41 40 42 47 52 55
111 106 52 50 45 28 28 27 28 27 26 29 35 42 42 43 43 43 42 38 35 32 28 27 27 25 23 13 20 22 24 28 39 44 45 48 52 57
58 53 44 44 32 26 22 24 27 26 26 28 33 37 39 40 39 39 36 36 29 26 27 26 27 27 25 23 19 23 26 27 31 37 41 46 54 57
49 46 41 35 21 21 21 21 25 25 27 30 33 36 37 37 37 35 35 33 30 28 29 28 29 30 30 28 27 27 28 31 34 34 37 42 45 48
47 41 36 30 17 17 13 22 25 26 27 30 32 35 35 36 35 34 33 32 31 32 30 30 31 35 38 33 32 32 35 37 40 42 45 49 52 52
42 38 33 27 19 16 20 24 24 25 27 30 32 33 34 35 32 32 32 32 32 32 32 33 34 36 36 36 35 35 38 41 44 47 49 53 56 57
36 36 28 15 12 19 19 25 25 27 28 30 31 33 33 32 30 30 32 32 31 32 32 35 36 37 38 39 40 40 41 44 48 54 55 57 57 60
31 30 18 13 13 18 20 25 26 26 28 28 30 31 31 29 28 31 31 31 32 32 33 35 37 38 38 38 41 41 39 42 50 52 50 50 51 52
28 21 12 11 18 18 18 23 25 26 26 27 28 28 27 28 31 31 31 32 31 31 33 35 38 39 39 41 44 44 43 43 47 50 51 49 49 49
Wind_Direction
299 298 300 300 302 302 297 299 299 295 297 298 296 297 297 298 295 293 293 291 292 291 291 290 289 267 285 283 279 273 274 273 267 270 249 250 257 249
297 300 301 295 293 294 290 298 299 294 294 295 294 297 296 292 295 295 294 292 290 290 290 282 288 284 283 276 277 263 274 269 271 270 266 259 250 246
300 298 296 294 292 296 290 295 297 287 293 293 295 296 295 293 294 292 293 292 291 290 288 289 285 284 283 279 279 276 270 270 269 269 262 249 246 241
300 296 290 292 291 292 298 291 295 295 287 293 297 297 292 290 292 291 292 292 288 288 287 285 285 283 280 279 276 272 272 274 270 262 254 247 241 245
296 299 294 292 292 290 291 290 293 293 293 289 291 293 292 292 295 293 292 292 287 285 284 282 282 280 278 277 275 278 274 267 262 255 250 237 240 232
293 292 292 292 293 293 295 294 291 293 295 297 297 297 298 297 293 293 292 290 288 286 283 282 282 281 281 278 275 274 268 262 256 249 241 234 237 230
293 294 294 295 296 296 297 297 298 298 299 299 300 297 294 294 294 294 291 290 288 287 286 282 280 279 278 278 275 273 271 257 250 247 237 229 227 228
294 296 297 296 297 298 299 299 298 299 298 298 297 296 294 294 292 291 289 288 288 283 284 282 281 280 280 277 275 272 271 261 246 242 234 224 224 225
296 296 298 297 297 297 297 297 297 297 297 296 295 294 293 288 288 285 286 284 284 285 284 282 281 280 278 276 274 271 262 253 241 233 229 223 221 223
298 297 297 297 296 295 296 296 297 297 293 294 294 290 289 288 286 286 285 283 284 284 283 282 282 276 271 271 273 270 256 243 235 229 221 219 220 221
296 296 295 295 295 294 295 295 293 294 290 287 284 284 285 285 283 284 285 284 284 284 281 281 274 272 266 269 269 262 249 234 228 223 222 218 217 221
295 293 295 293 293 293 294 292 292 285 282 282 281 283 281 281 278 278 279 281 283 281 279 273 267 263 265 264 267 251 233 230 226 221 220 218 228 220
294 293 293 294 295 294 294 284 272 261 262 267 264 278 276 280 277 279 278 279 280 276 272 268 264 261 263 264 259 232 220 228 225 221 220 218 219 221
296 298 297 297 299 296 289 271 267 255 252 260 260 256 278 269 276 275 277 277 274 274 263 266 257 258 262 259 247 222 214 225 225 219 219 219 221 221
299 300 300 303 303 296 270 267 260 249 244 247 252 251 261 270 272 273 267 267 269 263 254 258 252 252 260 253 217 220 216 217 225 223 222 222 221 221
301 303 305 302 301 280 274 267 250 239 234 234 245 247 248 248 254 259 261 262 259 259 248 247 245 242 251 232 209 209 217 219 224 225 226 226 227 226
303 305 306 304 296 274 268 255 239 224 226 232 237 240 241 245 249 255 255 257 243 243 246 244 237 241 238 239 225 211 218 220 223 226 229 231 230 231
304 309 307 309 288 270 260 244 224 219 221 229 233 234 235 239 245 247 249 250 243 239 243 240 241 239 234 236 232 228 224 226 230 229 234 237 235 234
304 305 304 303 278 275 251 230 221 218 222 227 228 231 233 238 240 242 245 244 240 250 243 241 243 252 258 243 241 240 239 238 236 235 236 239 242 240
304 305 302 292 275 258 237 220 220 218 221 225 227 230 233 237 238 241 243 241 245 251 236 240 245 246 247 248 246 247 248 247 247 246 243 244 247 248
303 306 299 267 238 235 230 219 214 216 220 224 226 230 235 237 238 239 241 243 249 255 247 243 247 250 253 253 252 250 254 256 255 255 253 252 254 254
302 303 288 256 236 233 228 221 214 217 222 225 228 233 237 237 238 238 241 243 248 258 248 251 255 257 262 265 263 261 259 259 258 260 260 258 256 256
302 292 248 245 238 237 224 216 210 216 222 228 234 239 238 236 234 239 243 245 253 257 248 252 256 258 261 265 262 265 265 265 260 258 259 260 261 261